Norfolk, NE

3:03 PM CDT on October 23, 2017 (GMT -0500)
Stefan Memorial

Weather History for KOFK - October, 2010

Change the Weather History Date:

Tuesday, October 12, 2010

  Actual Average Record
Temperature  
Mean Temperature 57 °F 53 °F  
Max Temperature 70 °F 65 °F 91 °F (1975)
Min Temperature 44 °F 40 °F 18 °F (1917)
Degree Days  
Heating Degree Days 8 13  
Month to date heating degree days 71 130  
Since 1 July heating degree days 156 272  
Cooling Degree Days 0 0  
Month to date cooling degree days 8 8  
Year to date cooling degree days 985 914  
Growing Degree Days 8 (Base 50)    
Moisture  
Dew Point 46 °F    
Average Humidity 65    
Maximum Humidity 93    
Minimum Humidity 37    
Precipitation  
Precipitation 0.00 in 0.08 in 1.85 in (1997)
Month to date precipitation 0.01 0.94  
Year to date precipitation 27.84 24.16  
Snow  
Snow 0.00 in 0.00 in - ()
Month to date snowfall 0.0 0.1  
Since 1 July snowfall 0.0 0.1  
Snow Depth 0.00 in    
Sea Level Pressure  
Sea Level Pressure 30.12 in    
Wind  
Wind Speed 13 mph (NW)    
Max Wind Speed 28 mph    
Max Gust Speed 36 mph    
Visibility 10 miles    
Events      
T = Trace of Precipitation, MM = Missing Value Source: NWS Daily Summary

Daily Weather History Graph

Daily Weather History Graph

Search for Another Location

Airport or City:

Trip Planner

Search our weather history database for the weather conditions in past years. The results will help you decide how hot, cold, wet, or windy it might be!

Date:

Astronomy

Oct. 12, 2010 Rise Set
Actual Time 7:38 AM CDT 6:52 PM CDT
Civil Twilight 7:10 AM CDT 7:20 PM CDT
Nautical Twilight 6:38 AM CDT 7:53 PM CDT
Astronomical Twilight 6:06 AM CDT 8:25 PM CDT
Moon 1:18 PM CDT (10/12) 10:25 PM CDT (10/12)
Length of Visible Light 12h 10m
Length of Day
11h 14m
Waxing Crescent, 29% of the Moon is Illuminated
Oct 12
Waxing Crescent
Oct 14
First Quarter
Oct 22
Full
Oct 30
Last Quarter
Nov 5
New

Hourly Weather History & Observations

Time (CDT) Temp. Windchill Dew Point Humidity Pressure Visibility Wind Dir Wind Speed Gust Speed Precip Events Conditions
12:56 AM 55.0 °F - 48.9 °F 80% 29.93 in 10.0 mi West 3.5 mph - N/A   Clear
1:56 AM 53.1 °F - 48.0 °F 83% 29.93 in 10.0 mi West 3.5 mph - N/A   Clear
2:56 AM 51.1 °F - 48.0 °F 89% 29.94 in 10.0 mi West 3.5 mph - N/A   Clear
3:56 AM 50.0 °F - 48.0 °F 93% 29.95 in 10.0 mi Calm Calm - N/A   Clear
4:56 AM 50.0 °F - 46.9 °F 89% 29.97 in 10.0 mi West 4.6 mph - N/A   Clear
5:56 AM 51.1 °F - 48.9 °F 92% 29.98 in 10.0 mi West 4.6 mph - N/A   Clear
6:56 AM 55.0 °F - 51.1 °F 86% 30.02 in 10.0 mi NW 10.4 mph - N/A   Clear
7:56 AM 55.0 °F - 51.1 °F 86% 30.05 in 10.0 mi NW 12.7 mph - N/A   Clear
8:56 AM 55.9 °F - 51.1 °F 84% 30.09 in 10.0 mi NW 16.1 mph 21.9 mph N/A   Clear
9:56 AM 59.0 °F - 50.0 °F 72% 30.11 in 10.0 mi NNW 19.6 mph - N/A   Clear
10:56 AM 62.1 °F - 50.0 °F 65% 30.14 in 10.0 mi NNW 19.6 mph 31.1 mph N/A   Clear
11:56 AM 64.9 °F - 48.9 °F 56% 30.14 in 10.0 mi NNW 18.4 mph 26.5 mph N/A   Scattered Clouds
12:56 PM 66.9 °F - 48.9 °F 52% 30.15 in 10.0 mi NNW 20.7 mph 27.6 mph N/A   Clear
1:56 PM 68.0 °F - 48.0 °F 49% 30.15 in 10.0 mi NNW 24.2 mph 31.1 mph N/A   Clear
2:56 PM 69.1 °F - 45.0 °F 42% 30.15 in 10.0 mi North 24.2 mph 32.2 mph N/A   Clear
3:56 PM 69.1 °F - 44.1 °F 40% 30.17 in 10.0 mi NNW 21.9 mph 31.1 mph N/A   Clear
4:56 PM 66.0 °F - 39.9 °F 38% 30.19 in 10.0 mi North 21.9 mph 29.9 mph N/A   Clear
5:56 PM 63.0 °F - 41.0 °F 45% 30.20 in 10.0 mi NNW 16.1 mph 24.2 mph N/A   Clear
6:56 PM 59.0 °F - 39.9 °F 49% 30.22 in 10.0 mi NNW 10.4 mph - N/A   Clear
7:56 PM 55.0 °F - 41.0 °F 59% 30.24 in 10.0 mi NW 9.2 mph - N/A   Clear
8:56 PM 53.1 °F - 39.9 °F 61% 30.26 in 10.0 mi NW 8.1 mph - N/A   Clear
9:56 PM 48.9 °F - 39.0 °F 69% 30.28 in 10.0 mi West 9.2 mph - N/A   Clear
10:56 PM 46.9 °F - 39.0 °F 74% 30.29 in 10.0 mi WNW 8.1 mph - N/A   Clear
11:56 PM 46.0 °F 42.5 °F 37.9 °F 73% 30.30 in 10.0 mi West 6.9 mph - N/A   Clear